Weather History for Darlington, SC

Change the Weather History Date:

Friday, November 22, 2013

  Actual Average (KFLO) Record (KFLO)
Temperature  
Mean Temperature 64 °F 54 °F  
Max Temperature 75 °F 65 °F 80 °F (2011)
Min Temperature 53 °F 42 °F 20 °F (2000)
Degree Days  
Heating Degree Days 1 12  
Month to date heating degree days 200  
Since 1 July heating degree days 317  
Cooling Degree Days 0 0  
Month to date cooling degree days 16  
Year to date cooling degree days 2058  
Growing Degree Days 14 (Base 50)    
Moisture  
Dew Point 53 °F    
Average Humidity 71    
Maximum Humidity 82    
Minimum Humidity 57    
Precipitation  
Precipitation 0.00 in 0.09 in 1.95 in (1948)
Month to date precipitation 1.94  
Year to date precipitation 39.17  
Sea Level Pressure  
Sea Level Pressure 30.27 in    
Wind  
Wind Speed 4 mph (West)    
Max Wind Speed 10 mph    
Max Gust Speed -    
Visibility 10 miles    
Events      
T = Trace of Precipitation, MM = Missing Value Source: NWS Daily Summary

Daily Weather History Graph

Daily Weather History Graph

Search for Another Location

Airport:

Trip Planner

Search our weather history database for the weather conditions in past years. The results will help you decide how hot, cold, wet, or windy it might be!

Date:

Astronomy

Nov. 22, 2013 Rise Set
Actual Time 6:59 AM EST 5:11 PM EST
Civil Twilight 6:32 AM EST 5:38 PM EST
Nautical Twilight 6:02 AM EST 6:09 PM EST
Astronomical Twilight 5:31 AM EST 6:39 PM EST
Moon 9:38 PM EST (11/22) 10:44 AM EST (11/22)
Length of Visible Light 11h 05m
Length of Day
10h 11m
Waning Gibbous, 78% of the Moon is Illuminated
Nov 22
Waning Gibbous
Nov 25
Last Quarter
Dec 2
New
Dec 9
First Quarter
Dec 17
Full

Hourly Weather History & Observations

Time (EST) Temp. Dew Point Humidity Pressure Visibility Wind Dir Wind Speed Gust Speed Precip Events Conditions
12:15 AM 59.0 °F 48.2 °F 67% 30.39 in 10.0 mi North 4.6 mph - N/A   Overcast
12:35 AM 59.0 °F 48.2 °F 67% 30.38 in 10.0 mi North 4.6 mph - N/A   Mostly Cloudy
12:55 AM 59.0 °F 48.2 °F 67% 30.38 in 10.0 mi NNE 4.6 mph - N/A   Overcast
1:15 AM 59.0 °F 48.2 °F 67% 30.37 in 10.0 mi North 3.5 mph - N/A   Overcast
1:35 AM 57.2 °F 48.2 °F 72% 30.37 in 10.0 mi NNE 3.5 mph - N/A   Overcast
1:55 AM 57.2 °F 48.2 °F 72% 30.36 in 10.0 mi NNE 3.5 mph - N/A   Overcast
2:15 AM 57.2 °F 48.2 °F 72% 30.36 in 10.0 mi NNE 4.6 mph - N/A   Overcast
2:35 AM 57.2 °F 48.2 °F 72% 30.36 in 10.0 mi NNE 4.6 mph - N/A   Overcast
2:55 AM 57.2 °F 48.2 °F 72% 30.35 in 10.0 mi North 3.5 mph - N/A   Overcast
3:15 AM 57.2 °F 48.2 °F 72% 30.35 in 10.0 mi Calm Calm - N/A   Overcast
3:35 AM 57.2 °F 48.2 °F 72% 30.34 in 10.0 mi Calm Calm - N/A   Overcast
3:55 AM 57.2 °F 48.2 °F 72% 30.34 in 10.0 mi Calm Calm - N/A   Overcast
4:15 AM 57.2 °F 48.2 °F 72% 30.34 in 10.0 mi North 4.6 mph - N/A   Mostly Cloudy
4:35 AM 55.4 °F 48.2 °F 77% 30.34 in 10.0 mi NNW 3.5 mph - N/A   Mostly Cloudy
4:55 AM 57.2 °F 48.2 °F 72% 30.34 in 10.0 mi North 3.5 mph - N/A   Overcast
5:15 AM 57.2 °F 48.2 °F 72% 30.34 in 10.0 mi North 3.5 mph - N/A   Overcast
5:35 AM 57.2 °F 50.0 °F 77% 30.34 in 10.0 mi NNE 5.8 mph - N/A   Overcast
5:55 AM 57.2 °F 48.2 °F 72% 30.34 in 10.0 mi NNE 3.5 mph - N/A   Overcast
6:15 AM 55.4 °F 48.2 °F 77% 30.34 in 10.0 mi NE 3.5 mph - N/A   Mostly Cloudy
6:35 AM 53.6 °F 48.2 °F 82% 30.34 in 10.0 mi North - - N/A   Partly Cloudy
6:55 AM 53.6 °F 48.2 °F 82% 30.34 in 10.0 mi North 4.6 mph - N/A   Clear
7:15 AM 53.6 °F 46.4 °F 77% 30.34 in 10.0 mi North 5.8 mph - N/A   Clear
7:35 AM 53.6 °F 48.2 °F 82% 30.35 in 10.0 mi North 5.8 mph - N/A   Mostly Cloudy
7:55 AM 55.4 °F 48.2 °F 77% 30.35 in 10.0 mi North 4.6 mph - N/A   Overcast
8:15 AM 55.4 °F 48.2 °F 77% 30.34 in 10.0 mi NNE 3.5 mph - N/A   Overcast
8:35 AM 57.2 °F 50.0 °F 77% 30.34 in 10.0 mi Calm Calm - N/A   Overcast
8:55 AM 57.2 °F 50.0 °F 77% 30.34 in 10.0 mi Calm Calm - N/A   Overcast
9:15 AM 59.0 °F 51.8 °F 77% 30.34 in 10.0 mi Calm Calm - N/A   Overcast
9:35 AM 62.6 °F 53.6 °F 72% 30.34 in 10.0 mi ESE 3.5 mph - N/A   Overcast
9:55 AM 62.6 °F 53.6 °F 72% 30.34 in 10.0 mi Calm Calm - N/A   Overcast
10:15 AM 64.4 °F 55.4 °F 73% 30.34 in 10.0 mi WSW 4.6 mph - N/A   Overcast
10:35 AM 64.4 °F 55.4 °F 73% 30.33 in 10.0 mi WSW 3.5 mph - N/A   Overcast
10:55 AM 66.2 °F 55.4 °F 68% 30.32 in 10.0 mi West 3.5 mph - N/A   Overcast
11:15 AM 66.2 °F 55.4 °F 68% 30.31 in 10.0 mi Calm Calm - N/A   Overcast
11:35 AM 69.8 °F 57.2 °F 64% 30.30 in 10.0 mi SW 6.9 mph - N/A   Overcast
11:55 AM 71.6 °F 57.2 °F 60% 30.29 in 10.0 mi SSW 5.8 mph - N/A   Overcast
12:15 PM 71.6 °F 59.0 °F 64% 30.28 in 10.0 mi SSW 5.8 mph - N/A   Overcast
12:35 PM 71.6 °F 59.0 °F 64% 30.27 in 10.0 mi SW 5.8 mph - N/A   Overcast
12:55 PM 71.6 °F 57.2 °F 60% 30.27 in 10.0 mi West 6.9 mph - N/A   Overcast
1:15 PM 71.6 °F 57.2 °F 60% 30.26 in 10.0 mi West 6.9 mph - N/A   Overcast
1:35 PM 71.6 °F 57.2 °F 60% 30.25 in 10.0 mi West 3.5 mph - N/A   Overcast
1:55 PM 71.6 °F 59.0 °F 64% 30.24 in 10.0 mi SW 5.8 mph - N/A   Unknown
2:15 PM 73.4 °F 59.0 °F 61% 30.24 in 10.0 mi SSW 6.9 mph - N/A   Mostly Cloudy
2:35 PM 71.6 °F 57.2 °F 60% 30.23 in 10.0 mi SSW 4.6 mph - N/A   Mostly Cloudy
2:55 PM 73.4 °F 59.0 °F 61% 30.22 in 10.0 mi South 4.6 mph - N/A   Mostly Cloudy
3:15 PM 73.4 °F 59.0 °F 61% 30.21 in 10.0 mi WSW 4.6 mph - N/A   Overcast
3:35 PM 75.2 °F 59.0 °F 57% 30.21 in 10.0 mi SW 10.4 mph - N/A   Overcast
3:55 PM 73.4 °F 57.2 °F 57% 30.21 in 10.0 mi SW 5.8 mph - N/A   Scattered Clouds
4:15 PM 73.4 °F 57.2 °F 57% 30.20 in 10.0 mi Calm Calm - N/A   Mostly Cloudy
4:35 PM 73.4 °F 57.2 °F 57% 30.20 in 10.0 mi WSW 5.8 mph - N/A   Mostly Cloudy
4:55 PM 71.6 °F 57.2 °F 60% 30.20 in 10.0 mi Calm Calm - N/A   Partly Cloudy
5:15 PM 69.8 °F 57.2 °F 64% 30.19 in 10.0 mi WSW 3.5 mph - N/A   Clear
5:35 PM 66.2 °F 55.4 °F 68% 30.19 in 10.0 mi SW 3.5 mph - N/A   Scattered Clouds
5:55 PM 66.2 °F 57.2 °F 73% 30.20 in 10.0 mi Calm Calm - N/A   Scattered Clouds
6:15 PM 66.2 °F 57.2 °F 73% 30.19 in 10.0 mi Calm Calm - N/A   Partly Cloudy
6:35 PM 64.4 °F 55.4 °F 73% 30.19 in 10.0 mi Calm Calm - N/A   Partly Cloudy
6:55 PM 62.6 °F 55.4 °F 77% 30.19 in 10.0 mi Calm Calm - N/A   Partly Cloudy
7:15 PM 60.8 °F 55.4 °F 82% 30.19 in 10.0 mi WSW 5.8 mph - N/A   Mostly Cloudy
7:35 PM 60.8 °F 55.4 °F 82% 30.18 in 10.0 mi WSW 3.5 mph - N/A   Overcast
7:55 PM 62.6 °F 55.4 °F 77% 30.18 in 10.0 mi SSW 4.6 mph - N/A   Overcast
8:15 PM 62.6 °F 55.4 °F 77% 30.17 in 10.0 mi SSW 4.6 mph - N/A   Mostly Cloudy
8:35 PM 62.6 °F 55.4 °F 77% 30.17 in 10.0 mi WSW 4.6 mph - N/A   Mostly Cloudy
8:55 PM 62.6 °F 55.4 °F 77% 30.17 in 10.0 mi SW 3.5 mph - N/A   Mostly Cloudy
9:15 PM 62.6 °F 55.4 °F 77% 30.17 in 10.0 mi SW 4.6 mph - N/A   Scattered Clouds
9:35 PM 62.6 °F 55.4 °F 77% 30.17 in 10.0 mi SSW 4.6 mph - N/A   Scattered Clouds
9:55 PM 62.6 °F 55.4 °F 77% 30.16 in 10.0 mi SSW 6.9 mph - N/A   Mostly Cloudy
10:15 PM 64.4 °F 57.2 °F 77% 30.15 in 10.0 mi South 9.2 mph - N/A   Mostly Cloudy
10:35 PM 64.4 °F 57.2 °F 77% 30.14 in 10.0 mi SSW 6.9 mph - N/A   Mostly Cloudy
10:55 PM 64.4 °F 57.2 °F 77% 30.15 in 10.0 mi West 4.6 mph - N/A   Scattered Clouds
11:15 PM 64.4 °F 57.2 °F 77% 30.15 in 10.0 mi WSW 4.6 mph - N/A   Clear
11:35 PM 64.4 °F 57.2 °F 77% 30.14 in 10.0 mi WSW 5.8 mph - N/A   Clear
11:55 PM 64.4 °F 57.2 °F 77% 30.14 in 10.0 mi SSW 6.9 mph - N/A   Clear